OE7SBH-WX Weather Reports


time (UTC)temp
C
wind
direction
speed
KPH
gust
KPH
rain 1hr
cm
rain 24hr
cm
rain mn
cm
humidity
%
barometer
mb
20260502163519 23 334 6.4 11.3 0.00 0.00 0.00 28 1022.0
20260502162532 24 331 4.8 9.7 0.00 0.00 0.00 29 1022.1
20260502161533 24 332 4.8 9.7 0.00 0.00 0.00 28 1022.2
20260502160534 25 329 6.4 9.7 0.00 0.00 0.00 26 1022.2
20260502151542 26 331 8.0 16.1 0.00 0.00 0.00 22 1022.6
20260502150522 26 336 9.7 16.1 0.00 0.00 0.00 22 1022.8
20260502130530 26 358 6.4 14.5 0.00 0.00 0.00 25 1024.4
20260502123528 25 334 6.4 12.9 0.00 0.00 0.00 27 1024.8
20260502122550 25 321 8.0 24.1 0.00 0.00 0.00 26 1025.0
20260502121519 25 356 8.0 14.5 0.00 0.00 0.00 25 1025.1
20260502120527 24 328 8.0 14.5 0.00 0.00 0.00 32 1025.4
20260502115516 24 331 4.8 11.3 0.00 0.00 0.00 32 1025.6
20260502114530 25 323 4.8 14.5 0.00 0.00 0.00 31 1025.8
20260502113522 23 7 3.2 11.3 0.00 0.00 0.00 31 1026.1
20260502112526 23 14 3.2 11.3 0.00 0.00 0.00 31 1026.2
20260502111532 22 333 3.2 6.4 0.00 0.00 0.00 31 1026.4
20260502110530 22 308 4.8 9.7 0.00 0.00 0.00 34 1026.6
20260502105518 22 126 3.2 4.8 0.00 0.00 0.00 38 1026.8
20260502104528 21 15 3.2 6.4 0.00 0.00 0.00 38 1027.0
20260502103516 21 349 1.6 4.8 0.00 0.00 0.00 37 1027.1
20260502102532 20 318 3.2 9.7 0.00 0.00 0.00 38 1027.4
20260502101519 21 126 3.2 6.4 0.00 0.00 0.00 38 1027.7
20260502100533 19 46 3.2 4.8 0.00 0.00 0.00 38 1027.7
20260502091533 17 7 3.2 6.4 0.00 0.00 0.00 41 1028.6
20260502090534 17 27 1.6 4.8 0.00 0.00 0.00 43 1028.9
20260502071516 12 51 1.6 3.2 0.00 0.00 0.00 60 1030.3
20260502070521 11 53 1.6 3.2 0.00 0.00 0.00 64 1030.5
20260502065533 10 87 1.6 4.8 0.00 0.00 0.00 67 1030.6
20260502064532 10 78 1.6 3.2 0.00 0.00 0.00 72 1030.8
20260502063519 9 81 1.6 3.2 0.00 0.00 0.00 73 1030.7
20260502062528 8 77 0.0 1.6 0.00 0.00 0.00 74 1030.7
20260502061517 7 91 1.6 3.2 0.00 0.00 0.00 80 1030.8
20260502060533 7 80 1.6 3.2 0.00 0.00 0.00 77 1030.8
20260502055520 7 43 0.0 1.6 0.00 0.00 0.00 78 1030.9
20260502054529 6 42 0.0 1.6 0.00 0.00 0.00 82 1030.9
20260502053519 5 41 0.0 1.6 0.00 0.00 0.00 83 1030.9
20260502052534 4 0.0 0.0 0.00 0.00 0.00 87 1031.0
20260502051533 4 42 0.0 1.6 0.00 0.00 0.00 87 1030.9
20260502050530 4 42 0.0 1.6 0.00 0.00 0.00 88 1031.0
20260502045525 4 42 0.0 1.6 0.00 0.00 0.00 89 1031.0
20260502044529 4 40 1.6 1.6 0.00 0.00 0.00 87 1031.0
20260502043534 4 36 0.0 1.6 0.00 0.00 0.00 87 1031.0
20260502042526 5 205 0.0 1.6 0.00 0.00 0.00 86 1031.0
20260502041532 5 192 3.2 4.8 0.00 0.00 0.00 86 1031.0
20260502040533 4 45 0.0 3.2 0.00 0.00 0.00 88 1030.9
20260502035538 5 254 0.0 1.6 0.00 0.00 0.00 85 1031.0
20260502034527 5 235 1.6 3.2 0.00 0.00 0.00 85 1030.9
20260502033535 5 293 0.0 3.2 0.00 0.00 0.00 85 1031.0
20260502032532 5 295 1.6 1.6 0.00 0.00 0.00 86 1030.9
20260502031519 4 0.0 0.0 0.00 0.00 0.00 86 1031.0
20260502030533 5 316 0.0 1.6 0.00 0.00 0.00 84 1030.9
20260502025526 5 318 1.6 3.2 0.00 0.00 0.00 81 1030.9
20260502024528 5 189 0.0 1.6 0.00 0.00 0.00 83 1030.9
20260502023534 5 189 0.0 1.6 0.00 0.00 0.00 84 1030.9
20260502022552 6 188 0.0 1.6 0.00 0.00 0.00 83 1031.0
20260502021519 5 0.0 0.0 0.00 0.00 0.00 83 1031.0
20260502020533 5 0.0 0.0 0.00 0.00 0.00 84 1030.8
20260502015532 5 0.0 0.0 0.00 0.00 0.00 85 1030.9
20260502014531 6 0.0 0.0 0.00 0.00 0.00 82 1030.9
20260502013539 6 0.0 0.0 0.00 0.00 0.00 80 1030.9
20260502012529 6 12 0.0 1.6 0.00 0.00 0.00 81 1030.9
20260502011522 6 14 0.0 1.6 0.00 0.00 0.00 82 1030.9
20260502010527 7 326 0.0 1.6 0.00 0.00 0.00 77 1030.8
20260502005532 6 331 0.0 1.6 0.00 0.00 0.00 78 1031.0
20260502004531 7 330 1.6 3.2 0.00 0.00 0.00 77 1031.0
20260502003529 6 17 0.0 1.6 0.00 0.00 0.00 77 1031.0
20260502002531 7 86 1.6 3.2 0.00 0.00 0.00 78 1031.0
20260502001525 7 301 3.2 3.2 0.00 0.00 0.00 75 1031.0
20260502000533 7 351 0.0 3.2 0.00 0.00 0.00 76 1030.9
20260501235519 8 343 1.6 4.8 0.00 0.00 0.00 72 1031.0
20260501234533 7 330 4.8 6.4 0.00 0.00 0.00 75 1031.0
20260501233533 8 6 0.0 1.6 0.00 0.00 0.00 75 1031.1
20260501232534 8 301 1.6 3.2 0.00 0.00 0.00 73 1030.9
20260501231532 8 102 1.6 3.2 0.00 0.00 0.00 73 1031.1
20260501230531 8 105 0.0 1.6 0.00 0.00 0.00 74 1031.2
20260501225518 8 0.0 0.0 0.00 0.00 0.00 71 1031.1
20260501224527 8 284 1.6 3.2 0.00 0.00 0.00 71 1031.1
20260501223528 8 340 0.0 1.6 0.00 0.00 0.00 72 1031.1
20260501222530 8 340 1.6 3.2 0.00 0.00 0.00 70 1031.0
20260501221549 9 15 0.0 1.6 0.00 0.00 0.00 71 1031.0
20260501220531 10 269 3.2 4.8 0.00 0.00 0.00 67 1031.0
20260501215546 9 337 0.0 1.6 0.00 0.00 0.00 70 1031.0
20260501214533 10 30 0.0 1.6 0.00 0.00 0.00 69 1030.9
20260501213522 10 268 1.6 3.2 0.00 0.00 0.00 64 1030.9
20260501212522 10 268 1.6 3.2 0.00 0.00 0.00 67 1031.0
20260501211519 11 269 0.0 1.6 0.00 0.00 0.00 62 1030.9
20260501210534 11 292 0.0 3.2 0.00 0.00 0.00 63 1030.9
20260501205522 11 298 0.0 1.6 0.00 0.00 0.00 62 1030.7
20260501204522 11 64 1.6 1.6 0.00 0.00 0.00 63 1030.7
20260501203539 11 9 0.0 1.6 0.00 0.00 0.00 65 1030.7
20260501202533 12 264 0.0 1.6 0.00 0.00 0.00 63 1030.6
20260501201533 12 312 1.6 1.6 0.00 0.00 0.00 58 1030.5
20260501200533 12 312 1.6 3.2 0.00 0.00 0.00 56 1030.3
20260501195548 13 347 0.0 1.6 0.00 0.00 0.00 56 1030.4
20260501194550 13 303 0.0 1.6 0.00 0.00 0.00 55 1030.0
20260501193518 13 319 0.0 1.6 0.00 0.00 0.00 56 1029.9
20260501192527 13 319 0.0 1.6 0.00 0.00 0.00 53 1029.7
20260501191534 13 326 1.6 1.6 0.00 0.00 0.00 51 1029.7
20260501190534 15 321 3.2 4.8 0.00 0.00 0.00 48 1029.5
20260501185516 15 5 1.6 4.8 0.00 0.00 0.00 48 1029.3
20260501184534 16 339 1.6 3.2 0.00 0.00 0.00 46 1029.2
20260501183522 16 329 3.2 6.4 0.00 0.00 0.00 44 1029.0
20260501182523 17 321 6.4 9.7 0.00 0.00 0.00 41 1028.8
20260501181519 17 327 3.2 6.4 0.00 0.00 0.00 40 1028.8
20260501180533 18 322 4.8 9.7 0.00 0.00 0.00 39 1028.6
20260501175534 18 310 4.8 11.3 0.00 0.00 0.00 38 1028.5
20260501174533 18 324 6.4 11.3 0.00 0.00 0.00 37 1028.3
20260501173528 18 352 4.8 6.4 0.00 0.00 0.00 37 1028.3
20260501172530 18 349 4.8 6.4 0.00 0.00 0.00 37 1028.0
20260501171518 19 328 6.4 12.9 0.00 0.00 0.00 35 1027.9
20260501170527 19 322 8.0 14.5 0.00 0.00 0.00 35 1027.8
20260501165548 20 330 9.7 16.1 0.00 0.00 0.00 33 1027.7
20260501164531 20 329 9.7 16.1 0.00 0.00 0.00 33 1027.8